• In Uzbekistan
  • List of Countries
  • For 7 days
  • Water Temperature
  • Satellite Maps
  • Weather Map
  • Weather Widgets
  • user-avatar
    Login

    Hourly Weather Biatris

    Today, 22 January, Monday

    Time Temperature Precipitation Wind Pressure Humidity
    00:00 +20°C° 0 mm 3 mps 652 mmHg 65%
    01:00 +19°C° 0 mm 2 mps 652 mmHg 70%
    02:00 +18°C° 0 mm 2 mps 652 mmHg 72%
    03:00 +17°C° 0 mm 2 mps 652 mmHg 76%
    04:00 +17°C° 0 mm 2 mps 652 mmHg 79%
    05:00 +16°C° 0 mm 2 mps 652 mmHg 82%
    06:00 +18°C° 0 mm 2 mps 652 mmHg 75%
    07:00 +20°C° 0 mm 2 mps 653 mmHg 67%
    08:00 +23°C° 0 mm 2 mps 653 mmHg 59%
    09:00 +26°C° 0 mm 2 mps 654 mmHg 50%
    10:00 +28°C° 0 mm 2 mps 654 mmHg 40%
    11:00 +31°C° 0 mm 1 mps 655 mmHg 31%
    12:00 +32°C° 0 mm 2 mps 654 mmHg 29%
    13:00 +34°C° 0 mm 2 mps 654 mmHg 26%
    14:00 +34°C° 0 mm 2 mps 653 mmHg 24%
    15:00 +32°C° 0 mm 2 mps 653 mmHg 26%
    16:00 +33°C° 0 mm 3 mps 652 mmHg 28%
    17:00 +31°C° 0 mm 3 mps 652 mmHg 30%
    18:00 +29°C° 0 mm 3 mps 651 mmHg 36%
    19:00 +27°C° 0 mm 3 mps 651 mmHg 41%
    20:00 +25°C° 0 mm 3 mps 651 mmHg 47%
    21:00 +24°C° 0 mm 3 mps 651 mmHg 51%
    22:00 +23°C° 0 mm 2 mps 652 mmHg 56%
    23:00 +21°C° 0 mm 2 mps 652 mmHg 60%

    Tomorrow, 23 January, Tuesday

    Time Temperature Precipitation Wind Pressure Humidity
    00:00 +20°C° 0 mm 2 mps 652 mmHg 65%
    01:00 +19°C° 0 mm 2 mps 651 mmHg 70%
    02:00 +19°C° 0 mm 2 mps 651 mmHg 75%
    03:00 +19°C° 0 mm 1 mps 651 mmHg 79%
    04:00 +19°C° 0 mm 1 mps 651 mmHg 83%
    05:00 +19°C° 0 mm 1 mps 651 mmHg 87%
    06:00 +20°C° 0 mm 1 mps 651 mmHg 81%
    07:00 +22°C° 0 mm 1 mps 652 mmHg 74%
    08:00 +24°C° 0 mm 2 mps 653 mmHg 67%
    09:00 +27°C° 0.1 mm 1 mps 653 mmHg 58%
    10:00 +29°C° 0.1 mm 1 mps 654 mmHg 48%
    11:00 +32°C° 0.1 mm 1 mps 654 mmHg 39%
    12:00 +31°C° 0 mm 1 mps 653 mmHg 40%
    13:00 +31°C° 0 mm 1 mps 652 mmHg 40%
    14:00 +30°C° 0 mm 1 mps 651 mmHg 41%
    15:00 +30°C° 0 mm 1 mps 651 mmHg 42%
    16:00 +29°C° 0 mm 1 mps 650 mmHg 43%
    17:00 +29°C° 0 mm 1 mps 650 mmHg 43%
    18:00 +28°C° 0 mm 1 mps 650 mmHg 47%
    19:00 +26°C° 0 mm 1 mps 650 mmHg 50%
    20:00 +25°C° 0 mm 1 mps 650 mmHg 54%
    21:00 +24°C° 0 mm 1 mps 651 mmHg 57%
    22:00 +24°C° 0 mm 1 mps 651 mmHg 59%
    23:00 +23°C° 0 mm 1 mps 652 mmHg 62%

    Day after tomorrow, 24 January, Wednesday

    Time Temperature Precipitation Wind Pressure Humidity
    00:00 +23°C° 0 mm 1 mps 651 mmHg 66%
    01:00 +21°C° 0 mm 2 mps 651 mmHg 69%
    02:00 +20°C° 0 mm 2 mps 650 mmHg 73%
    03:00 +19°C° 0 mm 2 mps 650 mmHg 75%
    04:00 +19°C° 0 mm 2 mps 650 mmHg 77%
    05:00 +19°C° 0 mm 1 mps 650 mmHg 79%
    06:00 +20°C° 0 mm 2 mps 651 mmHg 71%
    07:00 +23°C° 0 mm 2 mps 652 mmHg 64%
    08:00 +25°C° 0 mm 2 mps 653 mmHg 57%
    09:00 +27°C° 0 mm 2 mps 653 mmHg 51%
    10:00 +29°C° 0 mm 2 mps 653 mmHg 45%
    11:00 +31°C° 0 mm 2 mps 653 mmHg 39%
    12:00 +30°C° 0 mm 2 mps 653 mmHg 41%
    13:00 +30°C° 0 mm 2 mps 652 mmHg 43%
    14:00 +29°C° 0 mm 2 mps 651 mmHg 45%
    15:00 +29°C° 0.3 mm 2 mps 651 mmHg 48%
    16:00 +28°C° 0.3 mm 2 mps 650 mmHg 51%
    17:00 +28°C° 0.3 mm 2 mps 650 mmHg 54%
    18:00 +26°C° 0 mm 1 mps 650 mmHg 59%
    19:00 +25°C° 0 mm 1 mps 650 mmHg 64%
    20:00 +23°C° 0 mm 1 mps 650 mmHg 70%
    21:00 +22°C° 0.2 mm 1 mps 650 mmHg 73%
    22:00 +22°C° 0.2 mm 1 mps 651 mmHg 77%
    23:00 +21°C° 0.2 mm 1 mps 651 mmHg 80%

    25 January, Thursday

    Time Temperature Precipitation Wind Pressure Humidity
    00:00 +21°C° 0 mm 1 mps 650 mmHg 83%
    01:00 +20°C° 0 mm 1 mps 650 mmHg 86%
    02:00 +17°C° 0 mm 0 mps 649 mmHg 89%
    03:00 +17°C° 0 mm 0 mps 650 mmHg 90%
    04:00 +17°C° 0 mm 0 mps 650 mmHg 90%
    05:00 +17°C° 0 mm 0 mps 650 mmHg 91%
    06:00 +19°C° 0.2 mm 0 mps 651 mmHg 83%
    07:00 +21°C° 0.2 mm 0 mps 652 mmHg 75%
    08:00 +23°C° 0.2 mm 0 mps 653 mmHg 67%
    09:00 +27°C° 0.8 mm 1 mps 653 mmHg 60%
    10:00 +29°C° 0.8 mm 1 mps 653 mmHg 53%
    11:00 +30°C° 0.8 mm 1 mps 653 mmHg 46%
    12:00 +30°C° 0.5 mm 1 mps 652 mmHg 48%
    13:00 +29°C° 0.5 mm 1 mps 652 mmHg 50%
    14:00 +28°C° 0.5 mm 1 mps 651 mmHg 52%
    15:00 +28°C° 0.5 mm 1 mps 651 mmHg 55%
    16:00 +27°C° 0.5 mm 1 mps 650 mmHg 58%
    17:00 +26°C° 0.5 mm 1 mps 650 mmHg 61%
    18:00 +25°C° 0 mm 1 mps 650 mmHg 65%
    19:00 +24°C° 0 mm 1 mps 651 mmHg 68%
    20:00 +23°C° 0 mm 1 mps 651 mmHg 72%
    21:00 +22°C° 0 mm 1 mps 651 mmHg 74%
    22:00 +21°C° 0 mm 2 mps 651 mmHg 76%
    23:00 +20°C° 0 mm 2 mps 651 mmHg 78%

    26 January, Friday

    Time Temperature Precipitation Wind Pressure Humidity
    00:00 +20°C° 0 mm 2 mps 651 mmHg 79%
    01:00 +19°C° 0 mm 2 mps 650 mmHg 81%
    02:00 +19°C° 0 mm 2 mps 650 mmHg 82%
    03:00 +19°C° 0 mm 2 mps 650 mmHg 83%
    04:00 +19°C° 0 mm 1 mps 650 mmHg 84%
    05:00 +19°C° 0 mm 1 mps 650 mmHg 85%
    06:00 +20°C° 0 mm 2 mps 651 mmHg 77%
    07:00 +23°C° 0 mm 2 mps 653 mmHg 69%
    08:00 +24°C° 0 mm 2 mps 654 mmHg 61%
    09:00 +26°C° 0 mm 3 mps 654 mmHg 52%
    10:00 +28°C° 0 mm 3 mps 654 mmHg 43%
    11:00 +30°C° 0 mm 3 mps 654 mmHg 34%
    12:00 +31°C° 0 mm 3 mps 654 mmHg 32%
    13:00 +33°C° 0 mm 3 mps 653 mmHg 30%
    14:00 +34°C° 0 mm 3 mps 652 mmHg 27%
    15:00 +33°C° 0 mm 3 mps 652 mmHg 31%
    16:00 +30°C° 0 mm 3 mps 651 mmHg 35%
    17:00 +29°C° 0 mm 3 mps 651 mmHg 39%
    18:00 +28°C° 0 mm 3 mps 651 mmHg 45%
    19:00 +26°C° 0 mm 3 mps 651 mmHg 50%
    20:00 +25°C° 0 mm 3 mps 652 mmHg 55%
    21:00 +24°C° 0 mm 3 mps 652 mmHg 60%
    22:00 +23°C° 0 mm 2 mps 652 mmHg 65%
    23:00 +21°C° 0 mm 2 mps 652 mmHg 70%

    27 January, Saturday

    Time Temperature Precipitation Wind Pressure Humidity
    00:00 +20°C° 0 mm 2 mps 651 mmHg 74%
    01:00 +19°C° 0 mm 2 mps 651 mmHg 77%
    02:00 +19°C° 0 mm 1 mps 650 mmHg 81%
    03:00 +19°C° 0 mm 1 mps 650 mmHg 83%
    04:00 +19°C° 0 mm 1 mps 650 mmHg 84%
    05:00 +19°C° 0 mm 1 mps 650 mmHg 86%
    06:00 +21°C° 0 mm 1 mps 651 mmHg 78%
    07:00 +23°C° 0 mm 2 mps 652 mmHg 70%
    08:00 +25°C° 0 mm 2 mps 653 mmHg 62%
    09:00 +27°C° 0 mm 1 mps 654 mmHg 55%
    10:00 +29°C° 0 mm 1 mps 654 mmHg 48%
    11:00 +32°C° 0 mm 1 mps 654 mmHg 40%
    12:00 +31°C° 0.1 mm 1 mps 653 mmHg 43%
    13:00 +30°C° 0.1 mm 1 mps 652 mmHg 45%
    14:00 +29°C° 0.1 mm 1 mps 651 mmHg 47%
    15:00 +29°C° 0.1 mm 1 mps 651 mmHg 47%
    16:00 +29°C° 0.1 mm 1 mps 651 mmHg 46%
    17:00 +29°C° 0.1 mm 1 mps 651 mmHg 46%
    18:00 +27°C° 0 mm 1 mps 651 mmHg 52%
    19:00 +26°C° 0 mm 1 mps 651 mmHg 57%
    20:00 +24°C° 0 mm 2 mps 651 mmHg 63%
    21:00 +24°C° 0 mm 2 mps 651 mmHg 66%
    22:00 +23°C° 0 mm 1 mps 651 mmHg 69%
    23:00 +23°C° 0 mm 1 mps 651 mmHg 72%
    Show more